Location: Ottawa
(45.4170°N, 75.7000°W)
Time: 01:16:50
(UTC-04:00)

Amateur Radio Satellites - All Passes

Search period start: 25 May 2016 00:46
Search period end: 26 May 2016 00:46
Location: Ottawa, 45.4170°N, 75.7000°W

Satellite Date Start Highest point End Downlink Frequencies (MHz)
Time Altitude Azimuth
Cosmos 2499 25 May 00:48:03 00:54:25 32° 293° (WNW) 01:01:12 435.465 / 435.565
UNISAT 6 25 May 00:49:55 00:52:51 18° 297° (WNW) 00:55:49 437.425
ISS 25 May 00:52:42 00:55:47 38° 343° (NNW) 00:58:53 145.825
TIGRISAT 25 May 00:58:52 01:01:29 16° 298° (WNW) 01:04:06 435.000
BEESAT 25 May 01:01:52 01:04:37 16° 59° (ENE) 01:07:22 436.000
UKube-1 25 May 01:02:34 01:06:03 23° 266° (W) 01:09:33 .
ESTCUBE 1 25 May 01:03:50 01:05:57 13° 271° (W) 01:08:07 437.505/2401.250
PHONESAT 2.4 25 May 01:04:44 01:07:27 27° 169° (SSE) 01:10:09 2401.200-2431.200
BUGSAT 1 25 May 01:09:42 01:13:47 73° 103° (ESE) 01:17:48 437.445
POPSAT HIP 1 25 May 01:12:31 01:16:33 46° 289° (WNW) 01:20:33 437.405
QB50P1 25 May 01:13:15 01:17:16 44° 289° (WNW) 01:21:16 145.935-145.965
QB50P2 25 May 01:14:26 01:18:24 41° 290° (WNW) 01:22:21 145.880/145.840
POLYITAN 1 25 May 01:16:53 01:20:50 40° 290° (WNW) 01:24:45 437.675
DANDE 25 May 01:19:28 01:26:55 37° 273° (W) 01:34:03 436.750
TISAT 1 25 May 01:19:51 01:24:05 85° 256° (WSW) 01:28:21 437.305
NANOSAT C BR1 25 May 01:33:51 01:37:29 29° 293° (WNW) 01:41:06 145.865
Gurwin Techsat 1B 25 May 02:02:55 02:06:22 17° 90° (E) 02:09:47 435.225
Oscar 19 25 May 02:04:35 02:09:26 39° 97° (E) 02:14:14 437.125/150
SWISSCUBE 25 May 02:07:01 02:11:42 64° 72° (ENE) 02:16:26 437.505
SO-50 25 May 02:11:16 02:16:11 79° 307° (NW) 02:21:07 436.795
ITUPSAT 1 25 May 02:11:26 02:16:07 63° 72° (ENE) 02:20:52 437.325
DUCHIFAT 1 25 May 02:15:21 02:17:19 13° 300° (WNW) 02:19:16 145.980
RS-15 25 May 02:18:30 02:30:42 64° 46° (NE) 02:42:57 29.354- 29.394
JAS-2 25 May 02:29:18 02:36:59 75° 288° (WNW) 02:43:54 435.910
ISS 25 May 02:29:58 02:32:47 26° 3° (N) 02:35:38 145.825
BEESAT 25 May 02:37:06 02:41:50 73° 257° (WSW) 02:46:37 436.000
ITAMSAT 1 25 May 02:40:38 02:43:29 15° 89° (E) 02:46:20 435.822/435.867
PHONESAT 2.4 25 May 02:40:59 02:43:49 31° 185° (S) 02:46:38 2401.200-2431.200
MOZHAYETS 4 25 May 02:41:20 02:43:37 14° 59° (ENE) 02:45:53
BUGSAT 1 25 May 02:47:05 02:48:35 12° 300° (WNW) 02:50:05 437.445
KKS-1 25 May 02:47:24 02:50:44 21° 63° (ENE) 02:54:05 437.445
YUBILEINY 25 May 02:55:41 03:03:34 36° 68° (ENE) 03:11:26 435.215
STARS 25 May 03:30:59 03:34:48 29° 66° (ENE) 03:38:37 437.465
Gurwin Techsat 1B 25 May 03:41:31 03:46:49 68° 288° (WNW) 03:52:06 435.225
Oscar 19 25 May 03:44:11 03:48:37 30° 296° (WNW) 03:53:01 437.125/150
SWISSCUBE 25 May 03:47:10 03:49:57 15° 270° (W) 03:52:45 437.505
AO-7 25 May 03:49:55 03:56:56 29° 94° (E) 04:03:53 29.400- 29.500
ITUPSAT 1 25 May 03:51:32 03:54:24 16° 270° (W) 03:57:16 437.325
Cosmos 2491 25 May 03:52:37 04:00:18 35° 84° (E) 04:08:00 435.465 / 435.565
SO-50 25 May 03:54:04 03:57:27 18° 327° (NNW) 04:00:49 436.795
Cosmos 2504 25 May 03:58:22 04:05:06 26° 64° (ENE) 04:12:04 435.465 / 435.565
CUBESAT XI-V 25 May 03:59:25 04:00:38 11° 57° (ENE) 04:01:51 437.345
ISS 25 May 04:06:30 04:09:43 52° 23° (NNE) 04:12:55 145.825
MOZHAYETS 4 25 May 04:15:37 04:20:10 77° 257° (WSW) 04:24:46
JAS-2 25 May 04:15:46 04:20:40 19° 309° (NW) 04:25:20 435.910
PHONESAT 2.4 25 May 04:18:03 04:20:05 16° 202° (SSW) 04:22:05 2401.200-2431.200
ITAMSAT 1 25 May 04:18:19 04:23:33 78° 286° (WNW) 04:28:46 435.822/435.867
KKS-1 25 May 04:22:43 04:27:01 45° 261° (W) 04:31:20 437.445
RS-15 25 May 04:31:30 04:42:54 47° 250° (WSW) 04:54:16 29.354- 29.394
YUBILEINY 25 May 04:52:18 05:00:47 57° 270° (W) 05:09:17 435.215
STARS 25 May 05:07:13 05:11:07 30° 264° (W) 05:15:01 437.465
Gurwin Techsat 1B 25 May 05:24:12 05:25:48 11° 307° (NW) 05:27:24 435.225
CUBESAT XI-V 25 May 05:32:33 05:37:12 80° 76° (ENE) 05:41:56 437.345
HORYU 2 25 May 05:38:04 05:42:24 49° 100° (E) 05:46:41 437.375
STRAND 1 25 May 05:41:54 05:43:58 12° 55° (NE) 05:46:01 437.568
AO-7 25 May 05:42:01 05:50:20 70° 294° (WNW) 05:58:37 29.400- 29.500
ISS 25 May 05:43:11 05:46:01 27° 221° (SW) 05:48:50 145.825
Cosmos 2491 25 May 05:48:05 05:56:44 57° 285° (WNW) 06:05:26 435.465 / 435.565
Cosmos 2504 25 May 05:50:59 05:59:17 77° 265° (W) 06:08:03 435.465 / 435.565
AO-85 25 May 05:58:49 06:01:58 16° 108° (ESE) 06:05:04 145.980
NOAA 18 25 May 05:59:41 06:02:44 15° 89° (E) 06:05:46 137.9125
ITAMSAT 1 25 May 06:00:01 06:02:10 13° 305° (NW) 06:04:20 435.822/435.867
BRITE-PL 25 May 06:20:35 06:24:37 22° 90° (E) 06:28:25 437.365/2234.400
Cubesat XI-IV 25 May 06:24:43 06:28:43 21° 92° (E) 06:32:41 437.490
NOAA 15 25 May 06:30:10 06:34:57 33° 96° (E) 06:39:40 137.62
LilacSat-2 25 May 06:43:39 06:46:47 24° 95° (E) 06:49:53 437.200
YUBILEINY 25 May 06:54:08 06:55:31 10° 291° (WNW) 06:56:54 435.215
GOMX 1 25 May 07:00:25 07:04:14 23° 91° (E) 07:07:51 467.674
CUTE-I 25 May 07:11:09 07:16:23 52° 100° (E) 07:21:36 437.470
CUBESAT XI-V 25 May 07:13:23 07:15:11 12° 273° (W) 07:16:59 437.345
HORYU 2 25 May 07:15:29 07:18:37 19° 297° (WNW) 07:21:45 437.375
STRAND 1 25 May 07:17:13 07:22:18 79° 74° (ENE) 07:27:26 437.568
AO-7 25 May 07:36:15 07:41:42 20° 315° (NW) 07:47:09 29.400- 29.500
AO-85 25 May 07:36:20 07:41:49 89° 303° (WNW) 07:47:11 145.980
NOAA 18 25 May 07:38:32 07:44:02 81° 287° (WNW) 07:49:31 137.9125
Cosmos 2504 25 May 07:46:38 07:51:22 17° 284° (WNW) 07:56:14 435.465 / 435.565
Cosmos 2491 25 May 07:52:10 07:55:57 13° 310° (NW) 07:59:44 435.465 / 435.565
BRITE-PL 25 May 07:58:19 08:03:26 50° 290° (WNW) 08:08:10 437.365/2234.400
DOVE 4 25 May 08:03:28 08:07:48 45° 98° (E) 08:11:53 437.250
Cubesat XI-IV 25 May 08:03:54 08:09:09 58° 290° (WNW) 08:14:24 437.490
CANX-2 25 May 08:06:15 08:08:58 16° 91° (E) 08:11:42 2200.000
NOAA 15 25 May 08:09:54 08:14:44 37° 294° (WNW) 08:19:32 137.62
HO-68 25 May 08:13:34 08:19:27 27° 93° (E) 08:25:18 435.675
SEEDS 25 May 08:15:23 08:17:23 13° 89° (E) 08:19:22 437.485
LilacSat-2 25 May 08:17:53 08:21:03 26° 292° (WNW) 08:24:14 437.200
PRISM 25 May 08:28:14 08:32:22 80° 73° (ENE) 08:36:33 437.425
CUTE 1.7 + AOD 2 25 May 08:33:21 08:37:01 27° 95° (E) 08:40:41 437.475
GOMX 1 25 May 08:38:00 08:42:32 40° 291° (WNW) 08:46:46 467.674
Cosmos 2499 25 May 08:41:30 08:48:13 25° 63° (ENE) 08:55:09 435.465 / 435.565
GONETS M04 25 May 08:45:17 08:53:23 40° 70° (ENE) 09:01:25
CUTE-I 25 May 08:51:52 08:56:06 24° 298° (WNW) 09:00:21 437.470
CINEMA 3 25 May 08:54:55 08:59:00 46° 99° (E) 09:02:59 145.822/145.860
AIST 1 25 May 08:58:50 09:03:14 79° 81° (E) 09:07:34
STRAND 1 25 May 08:59:33 09:02:06 14° 272° (W) 09:04:40 437.568
SO-50 25 May 09:00:53 09:05:02 29° 41° (NE) 09:09:04 436.795
UWE-3 25 May 09:03:03 09:05:00 13° 90° (E) 09:06:56 435.000/436.395/437.385
COMPASS 1 25 May 09:05:24 09:09:12 31° 96° (E) 09:12:58 437.405
AUBIESAT-1 25 May 09:05:29 09:08:45 49° 106° (ESE) 09:11:57 437.475
M-CUBED/EXP-1 PRIME 25 May 09:09:38 09:12:57 72° 108° (ESE) 09:16:12 437.505
AAUSAT CUBESAT 2 25 May 09:10:50 09:14:31 29° 95° (E) 09:18:10 437.432
FUNcube-1 25 May 09:15:51 09:17:04 11° 89° (E) 09:18:18 145.935
AO-85 25 May 09:18:52 09:23:01 22° 325° (NW) 09:27:04 145.980
ANTELSAT 25 May 09:19:36 09:22:23 17° 62° (ENE) 09:25:07 437.575/2403.000
NOAA 18 25 May 09:21:07 09:23:51 14° 306° (NW) 09:26:35 137.9125
O/OREOS (USA 219) 25 May 09:29:54 09:32:48 17° 100° (E) 09:35:41 437.305
CANX-2 25 May 09:40:58 09:45:07 50° 288° (WNW) 09:49:16 2200.000
DOVE 4 25 May 09:41:55 09:45:10 20° 297° (WNW) 09:48:18 437.250
SEEDS 25 May 09:49:17 09:53:30 63° 286° (WNW) 09:57:42 437.485
HO-68 25 May 10:00:35 10:07:41 66° 292° (WNW) 10:14:45 435.675
Oscar 11 25 May 10:01:21 10:05:30 42° 98° (E) 10:09:37 145.826/435.025
CUBEBUG 2 25 May 10:03:13 10:07:22 83° 101° (E) 10:11:33 437.445
DELFI C3 25 May 10:04:22 10:07:31 21° 94° (E) 10:10:37 145.870
CUTE 1.7 + AOD 2 25 May 10:09:07 10:12:50 30° 292° (WNW) 10:16:34 437.475
ZACube-1 25 May 10:10:03 10:14:04 45° 99° (E) 10:18:07 437.345
UNISAT 6 25 May 10:13:03 10:17:20 55° 73° (ENE) 10:21:34 437.425
TIGRISAT 25 May 10:21:31 10:25:51 64° 73° (ENE) 10:30:08 435.000
POPSAT HIP 1 25 May 10:32:29 10:35:24 18° 63° (ENE) 10:38:19 437.405
CINEMA 3 25 May 10:33:00 10:35:48 17° 297° (WNW) 10:38:33 145.822/145.860
QB50P1 25 May 10:33:06 10:36:04 19° 64° (ENE) 10:39:03 145.935-145.965
Cosmos 2499 25 May 10:33:47 10:42:17 82° 264° (W) 10:51:09 435.465 / 435.565
QB50P2 25 May 10:34:14 10:37:21 20° 64° (ENE) 10:40:28 145.880/145.840
POLYITAN 1 25 May 10:36:39 10:39:47 21° 64° (ENE) 10:42:56 437.675
UWE-3 25 May 10:37:46 10:41:51 60° 287° (WNW) 10:46:00 435.000/436.395/437.385
AIST 1 25 May 10:39:58 10:40:06 10° 279° (W) 10:40:15
COMPASS 1 25 May 10:41:09 10:44:39 26° 293° (WNW) 10:48:07 437.405
SO-50 25 May 10:41:12 10:45:43 47° 241° (WSW) 10:50:05 436.795
AUBIESAT-1 25 May 10:41:34 10:42:53 12° 304° (WNW) 10:44:11 437.475
GONETS M04 25 May 10:42:08 10:50:23 50° 271° (W) 10:58:36
HUMSAT D 25 May 10:42:40 10:46:10 26° 95° (E) 10:49:39 437.325/437.525
AAUSAT CUBESAT 2 25 May 10:46:22 10:49:56 27° 292° (WNW) 10:53:29 437.432
FUNcube-1 25 May 10:49:38 10:53:48 71° 285° (WNW) 10:57:59 145.935
PCSat 25 May 10:51:41 10:57:04 68° 118° (ESE) 11:02:28 145.827
NANOSAT C BR1 25 May 10:52:23 10:55:59 27° 67° (ENE) 10:59:34 145.865
ANTELSAT 25 May 10:54:24 10:58:43 55° 260° (W) 11:02:58 437.575/2403.000
JAS-2 25 May 11:00:45 11:05:17 17° 49° (NE) 11:09:56 435.910
O/OREOS (USA 219) 25 May 11:07:15 11:11:44 56° 298° (WNW) 11:16:14 437.305
ESTCUBE 1 25 May 11:16:20 11:18:21 13° 89° (E) 11:20:19 437.505/2401.250
DUCHIFAT 1 25 May 11:31:35 11:35:46 66° 74° (ENE) 11:39:58 145.980
CUSAT 1 25 May 11:35:35 11:40:57 30° 84° (E) 11:47:14 437.405
Oscar 11 25 May 11:38:07 11:41:22 21° 295° (WNW) 11:44:37 145.826/435.025
DELFI C3 25 May 11:38:47 11:42:27 34° 290° (WNW) 11:46:06 145.870
CUBEBUG 2 25 May 11:42:22 11:43:24 11° 301° (WNW) 11:44:26 437.445
ZACube-1 25 May 11:47:12 11:50:04 18° 296° (WNW) 11:52:57 437.345
Oscar 19 25 May 11:48:26 11:50:07 12° 54° (NE) 11:51:48 437.125/150
VELOX 1 25 May 11:49:02 11:52:06 18° 92° (E) 11:55:08 145.980
CUBEBUG 1 25 May 11:49:13 11:52:20 19° 92° (E) 11:55:25 437.445
HO-68 25 May 11:50:14 11:54:06 16° 312° (NW) 11:57:58 435.675
UNISAT 6 25 May 11:51:49 11:54:24 15° 269° (W) 11:56:57 437.425
DX 1 25 May 11:53:11 11:56:00 17° 92° (E) 11:58:47 434.975-435.025
BEESAT 2 25 May 11:58:22 12:00:11 13° 110° (ESE) 12:02:01 435.950
TIGRISAT 25 May 12:00:53 12:02:58 13° 270° (W) 12:05:02 435.000
BUGSAT 1 25 May 12:01:02 12:05:13 67° 73° (ENE) 12:09:23 437.445
POPSAT HIP 1 25 May 12:06:46 12:10:52 47° 261° (W) 12:14:58 437.405
QB50P1 25 May 12:07:27 12:11:32 46° 261° (W) 12:15:38 145.935-145.965
QB50P2 25 May 12:08:51 12:12:54 42° 262° (W) 12:16:57 145.880/145.840
POLYITAN 1 25 May 12:11:19 12:15:21 41° 262° (W) 12:19:22 437.675
HUMSAT D 25 May 12:18:10 12:21:47 30° 292° (WNW) 12:25:25 437.325/437.525
AISAT 25 May 12:23:56 12:28:10 42° 99° (E) 12:32:20 437.250
NANOSAT C BR1 25 May 12:27:56 12:31:39 29° 264° (W) 12:35:22 145.865
SPROUT 25 May 12:28:28 12:31:31 19° 92° (E) 12:34:33 437.525
Cosmos 2499 25 May 12:28:51 12:34:11 18° 283° (WNW) 12:39:38 435.465 / 435.565
BEESAT 3 25 May 12:36:00 12:39:50 53° 120° (ESE) 12:43:42 437.485
PCSat 25 May 12:36:32 12:40:57 25° 318° (NW) 12:45:25 145.827
JAS-2 25 May 12:41:35 12:48:49 67° 70° (ENE) 12:56:36 435.910
UKube-1 25 May 12:46:25 12:50:38 47° 100° (E) 12:54:47 .
DANDE 25 May 12:47:01 12:52:05 48° 90° (E) 12:58:43 436.750
ESTCUBE 1 25 May 12:51:07 12:55:40 73° 286° (WNW) 13:00:11 437.505/2401.250
50 SAT 25 May 12:57:05 13:00:47 68° 285° (WNW) 13:04:29 437.505
TISAT 1 25 May 13:03:29 13:05:16 12° 89° (E) 13:07:02 437.305
AO-7 25 May 13:04:26 13:08:04 14° 38° (NE) 13:11:43 29.400- 29.500
DUCHIFAT 1 25 May 13:10:11 13:11:55 12° 271° (W) 13:13:39 145.980
CUSAT 1 25 May 13:16:23 13:22:31 56° 288° (WNW) 13:30:03 437.405
Oscar 19 25 May 13:23:20 13:28:31 71° 73° (ENE) 13:33:43 437.125/150
VELOX 1 25 May 13:24:33 13:28:51 48° 289° (WNW) 13:33:05 145.980
CUBEBUG 1 25 May 13:24:39 13:28:52 45° 289° (WNW) 13:33:01 437.445
Gurwin Techsat 1B 25 May 13:25:40 13:30:24 34° 66° (ENE) 13:35:09 435.225
DX 1 25 May 13:28:14 13:32:30 51° 289° (WNW) 13:36:43 434.975-435.025
BEESAT 2 25 May 13:33:33 13:37:30 68° 308° (NW) 13:41:29 435.950
BUGSAT 1 25 May 13:39:21 13:41:01 12° 270° (W) 13:42:42 437.445
AIST 2 25 May 13:46:27 13:48:04 12° 109° (ESE) 13:49:41 435.215
Cosmos 2491 25 May 13:59:55 14:05:59 20° 58° (ENE) 14:12:00 435.465 / 435.565
ITAMSAT 1 25 May 14:00:07 14:04:30 29° 64° (ENE) 14:08:55 435.822/435.867
AISAT 25 May 14:01:00 14:04:23 22° 296° (WNW) 14:07:44 437.250
SPROUT 25 May 14:03:38 14:07:40 42° 289° (WNW) 14:11:41 437.525
SWISSCUBE 25 May 14:06:32 14:09:01 14° 89° (E) 14:11:30 437.505
ITUPSAT 1 25 May 14:11:17 14:13:44 14° 89° (E) 14:16:11 437.325
BEESAT 3 25 May 14:14:48 14:17:49 21° 320° (NW) 14:20:52 437.485
UKube-1 25 May 14:23:17 14:26:21 19° 297° (WNW) 14:29:23 .
AO-85 25 May 14:26:49 14:30:51 25° 38° (NE) 14:34:35 145.980
JAS-2 25 May 14:28:14 14:34:22 29° 270° (W) 14:40:56 435.910
DANDE 25 May 14:30:23 14:35:19 31° 297° (WNW) 14:41:29 436.750
BEESAT 25 May 14:35:28 14:39:22 24° 94° (E) 14:43:14 436.000
TISAT 1 25 May 14:37:12 14:41:22 64° 286° (WNW) 14:45:28 437.305
AO-7 25 May 14:51:02 14:58:53 49° 61° (ENE) 15:06:45 29.400- 29.500
CUSAT 1 25 May 15:03:37 15:06:43 13° 311° (NW) 15:10:02 437.405
Oscar 19 25 May 15:05:13 15:08:22 16° 271° (W) 15:11:31 437.125/150
Gurwin Techsat 1B 25 May 15:05:29 15:10:19 35° 263° (W) 15:15:10 435.225
BEESAT 2 25 May 15:14:18 15:16:07 13° 328° (NNW) 15:17:55 435.950
AIST 2 25 May 15:21:49 15:25:57 77° 306° (NW) 15:30:06 435.215
ITAMSAT 1 25 May 15:38:58 15:43:50 41° 262° (W) 15:48:43 435.822/435.867
SWISSCUBE 25 May 15:42:32 15:47:20 72° 287° (WNW) 15:52:07 437.505
ITUPSAT 1 25 May 15:47:18 15:52:07 73° 286° (WNW) 15:56:54 437.325
Cosmos 2491 25 May 15:55:32 16:04:22 83° 81° (E) 16:13:06 435.465 / 435.565
YUBILEINY 25 May 15:59:56 16:07:36 37° 84° (E) 16:15:16 435.215
AO-85 25 May 16:07:04 16:11:42 56° 240° (WSW) 16:15:55 145.980
MOZHAYETS 4 25 May 16:09:00 16:12:34 22° 93° (E) 16:16:07
KKS-1 25 May 16:11:35 16:15:26 28° 96° (E) 16:19:14 437.445
BEESAT 25 May 16:12:48 16:17:18 41° 291° (WNW) 16:21:47 436.000
NOAA 15 25 May 16:17:23 16:18:38 11° 53° (NE) 16:19:54 137.62
HORYU 2 25 May 16:37:57 16:42:18 60° 72° (ENE) 16:46:41 437.375
Cosmos 2504 25 May 16:43:16 16:47:14 16° 75° (ENE) 16:51:18 435.465 / 435.565
AO-7 25 May 16:43:56 16:51:43 44° 261° (W) 16:59:35 29.400- 29.500
RS-15 25 May 16:47:12 16:56:05 28° 101° (ESE) 17:05:19 29.354- 29.394
STARS 25 May 16:53:50 16:57:59 40° 99° (E) 17:02:04 437.465
CUTE-I 25 May 16:57:52 17:01:08 17° 58° (ENE) 17:04:26 437.470
AIST 2 25 May 17:02:51 17:05:08 14° 327° (NNW) 17:07:26 435.215
SWISSCUBE 25 May 17:23:27 17:24:16 10° 305° (NW) 17:25:04 437.505
NOAA 18 25 May 17:27:21 17:32:17 36° 65° (ENE) 17:37:13 137.9125
CUBESAT XI-V 25 May 17:27:57 17:31:06 17° 90° (E) 17:34:13 437.345
ITUPSAT 1 25 May 17:28:07 17:29:05 11° 305° (NW) 17:30:04 437.325
LilacSat-2 25 May 17:28:21 17:30:56 18° 65° (ENE) 17:33:32 437.200
BRITE-PL 25 May 17:32:08 17:37:10 34° 66° (ENE) 17:42:16 437.365/2234.400
MOZHAYETS 4 25 May 17:45:33 17:49:55 43° 290° (WNW) 17:54:18
KKS-1 25 May 17:48:04 17:51:59 31° 293° (WNW) 17:55:52 437.445
Cubesat XI-IV 25 May 17:48:34 17:53:32 42° 67° (ENE) 17:58:31 437.490
NOAA 15 25 May 17:52:10 17:57:24 65° 72° (ENE) 18:02:41 137.62
Cosmos 2491 25 May 17:53:49 18:00:06 23° 282° (WNW) 18:06:21 435.465 / 435.565
PCSat 25 May 17:54:48 17:58:42 19° 37° (NE) 18:02:34 145.827
YUBILEINY 25 May 17:55:38 18:04:04 54° 286° (WNW) 18:12:35 435.215
GOMX 1 25 May 18:09:16 18:14:15 36° 68° (ENE) 18:19:09 467.674
HORYU 2 25 May 18:16:46 18:19:16 15° 269° (W) 18:21:45 437.375
AUBIESAT-1 25 May 18:21:42 18:23:08 12° 56° (NE) 18:24:32 437.475
M-CUBED/EXP-1 PRIME 25 May 18:25:08 18:27:35 16° 58° (ENE) 18:29:56 437.505
STARS 25 May 18:30:43 18:34:06 22° 296° (WNW) 18:37:28 437.465
Cosmos 2504 25 May 18:32:04 18:39:16 86° 97° (E) 18:46:54 435.465 / 435.565
CUTE-I 25 May 18:35:14 18:40:32 80° 256° (WSW) 18:45:53 437.470
HO-68 25 May 18:45:07 18:50:50 27° 56° (NE) 18:56:34 435.675
RS-15 25 May 18:55:32 19:06:59 87° 305° (NW) 19:19:08 29.354- 29.394
LilacSat-2 25 May 19:01:25 19:04:59 38° 262° (W) 19:08:34 437.200
CANX-2 25 May 19:01:35 19:04:11 16° 63° (ENE) 19:06:48 2200.000
CUBESAT XI-V 25 May 19:04:12 19:08:50 56° 288° (WNW) 19:13:26 437.345
NOAA 18 25 May 19:07:58 19:12:56 35° 263° (W) 19:17:54 137.9125
DOVE 4 25 May 19:09:49 19:15:00 62° 73° (ENE) 19:20:00 437.250
SEEDS 25 May 19:09:52 19:11:44 13° 61° (ENE) 19:13:38 437.485
BRITE-PL 25 May 19:10:15 19:15:30 40° 264° (W) 19:20:52 437.365/2234.400
BEESAT 3 25 May 19:15:07 19:16:44 12° 32° (NNE) 19:18:21 437.485
STRAND 1 25 May 19:26:08 19:30:10 23° 93° (E) 19:34:11 437.568
CUTE 1.7 + AOD 2 25 May 19:28:15 19:31:43 26° 67° (ENE) 19:35:14 437.475
Cubesat XI-IV 25 May 19:29:12 19:33:44 28° 265° (W) 19:38:18 437.490
CUBEBUG 2 25 May 19:30:37 19:31:28 10° 59° (ENE) 19:32:18 437.445
NOAA 15 25 May 19:34:01 19:37:38 18° 269° (W) 19:41:16 137.62
O/OREOS (USA 219) 25 May 19:35:53 19:40:14 46° 60° (ENE) 19:44:32 437.305
PCSat 25 May 19:37:27 19:42:55 85° 58° (ENE) 19:48:21 145.827
GOMX 1 25 May 19:47:16 19:52:16 35° 265° (W) 19:57:14 467.674
AUBIESAT-1 25 May 19:53:00 19:57:11 80° 251° (WSW) 20:01:04 437.475
M-CUBED/EXP-1 PRIME 25 May 19:57:38 20:01:50 58° 253° (WSW) 20:05:44 437.505
CINEMA 3 25 May 19:57:57 20:02:38 58° 73° (ENE) 20:07:08 145.822/145.860
COMPASS 1 25 May 19:58:20 20:01:52 28° 68° (ENE) 20:05:27 437.405
YUBILEINY 25 May 20:00:18 20:03:21 12° 311° (NW) 20:06:24 435.215
UWE-3 25 May 20:02:16 20:04:46 15° 63° (ENE) 20:07:16 435.000/436.395/437.385
AAUSAT CUBESAT 2 25 May 20:03:18 20:06:44 26° 67° (ENE) 20:10:11 437.432
BEESAT 2 25 May 20:12:28 20:15:30 20° 39° (NE) 20:18:32 435.950
FUNcube-1 25 May 20:13:37 20:15:29 13° 61° (ENE) 20:17:21 145.935
CUTE-I 25 May 20:20:21 20:21:26 11° 274° (W) 20:22:31 437.470
Cosmos 2504 25 May 20:28:43 20:33:49 20° 300° (WNW) 20:39:09 435.465 / 435.565
HO-68 25 May 20:30:51 20:37:58 71° 256° (WSW) 20:45:08 435.675
CANX-2 25 May 20:35:31 20:39:38 54° 260° (W) 20:43:47 2200.000
SEEDS 25 May 20:42:45 20:46:53 70° 258° (WSW) 20:51:06 437.485
DOVE 4 25 May 20:49:25 20:53:02 19° 269° (W) 20:56:36 437.250
BEESAT 3 25 May 20:51:16 20:55:13 64° 52° (NE) 20:59:08 437.485
DELFI C3 25 May 20:52:58 20:55:39 18° 64° (ENE) 20:58:21 145.870
Oscar 11 25 May 20:58:02 21:02:04 42° 70° (ENE) 21:06:09 145.826/435.025
CUBEBUG 2 25 May 21:03:02 21:07:27 88° 83° (E) 21:11:45 437.445
CUTE 1.7 + AOD 2 25 May 21:03:44 21:07:28 31° 264° (W) 21:11:14 437.475
STRAND 1 25 May 21:04:38 21:09:36 50° 290° (WNW) 21:14:33 437.568
ZACube-1 25 May 21:07:49 21:11:52 46° 72° (ENE) 21:15:54 437.345
RS-15 25 May 21:10:37 21:21:17 38° 334° (NNW) 21:32:28 29.354- 29.394
O/OREOS (USA 219) 25 May 21:16:04 21:19:17 20° 259° (W) 21:22:30 437.305
PCSat 25 May 21:22:36 21:25:33 15° 256° (WSW) 21:28:30 145.827
Cosmos 2499 25 May 21:25:07 21:28:36 14° 73° (ENE) 21:32:10 435.465 / 435.565
AIST 1 25 May 21:30:10 21:34:18 41° 92° (E) 21:38:27
COMPASS 1 25 May 21:33:52 21:37:24 27° 265° (W) 21:40:59 437.405
HUMSAT D 25 May 21:36:16 21:39:34 24° 66° (ENE) 21:42:52 437.325/437.525
UWE-3 25 May 21:36:34 21:40:49 58° 259° (W) 21:45:01 435.000/436.395/437.385
CINEMA 3 25 May 21:37:04 21:40:05 17° 269° (W) 21:43:02 145.822/145.860
AAUSAT CUBESAT 2 25 May 21:38:30 21:42:07 30° 264° (W) 21:45:48 437.432
DANDE 25 May 21:41:31 21:45:44 14° 51° (NE) 21:49:54 436.750
PRISM 25 May 21:42:48 21:47:02 85° 285° (WNW) 21:51:12 437.425
FUNcube-1 25 May 21:46:59 21:51:13 70° 258° (WSW) 21:55:24 145.935
GONETS M04 25 May 21:49:10 21:57:15 43° 86° (E) 22:05:17
BEESAT 2 25 May 21:49:44 21:53:40 56° 239° (WSW) 21:57:33 435.950
AIST 2 25 May 22:03:22 22:06:33 21° 39° (NE) 22:09:42 435.215
CUSAT 1 25 May 22:07:14 22:14:09 31° 63° (ENE) 22:20:18 437.405
TIGRISAT 25 May 22:13:18 22:14:13 11° 88° (E) 22:15:08 435.000
ESTCUBE 1 25 May 22:17:49 22:20:37 17° 61° (ENE) 22:23:27 437.505/2401.250
ISS 25 May 22:23:52 22:26:39 26° 139° (SE) 22:29:27 145.825
HO-68 25 May 22:24:01 22:26:56 13° 275° (W) 22:29:52 435.675
DELFI C3 25 May 22:26:26 22:30:12 42° 261° (W) 22:34:01 145.870
BEESAT 3 25 May 22:30:27 22:32:25 13° 250° (WSW) 22:34:22 437.485
Oscar 11 25 May 22:35:16 22:38:24 20° 268° (W) 22:41:33 145.826/435.025
ANTELSAT 25 May 22:44:04 22:47:37 24° 95° (E) 22:51:09 437.575/2403.000
ZACube-1 25 May 22:45:37 22:48:25 17° 268° (W) 22:51:12 437.345
CUBEBUG 1 25 May 22:47:13 22:50:35 22° 64° (ENE) 22:53:59 437.445
VELOX 1 25 May 22:48:20 22:51:47 22° 64° (ENE) 22:55:15 145.980
DX 1 25 May 22:50:42 22:53:56 20° 63° (ENE) 22:57:09 434.975-435.025
AIST 1 25 May 23:08:49 23:12:05 20° 291° (WNW) 23:15:23
HUMSAT D 25 May 23:11:26 23:15:05 31° 264° (W) 23:18:44 437.325/437.525
Cosmos 2499 25 May 23:12:58 23:20:10 78° 96° (E) 23:27:57 435.465 / 435.565
DANDE 25 May 23:22:21 23:30:36 54° 73° (ENE) 23:38:23 436.750
AISAT 25 May 23:23:05 23:27:24 50° 71° (ENE) 23:31:44 437.250
SPROUT 25 May 23:24:15 23:27:25 20° 64° (ENE) 23:30:36 437.525
RS-15 25 May 23:27:57 23:38:15 31° 9° (N) 23:48:48 29.354- 29.394
50 SAT 25 May 23:37:06 23:40:42 73° 76° (ENE) 23:44:22 437.505
UNISAT 6 25 May 23:38:51 23:43:09 88° 279° (W) 23:47:29 437.425
AIST 2 25 May 23:41:17 23:45:22 59° 239° (WSW) 23:49:27 435.215
UKube-1 25 May 23:42:45 23:46:58 53° 71° (ENE) 23:51:13 .
GONETS M04 25 May 23:45:34 23:53:58 48° 288° (WNW) 00:02:23
TIGRISAT 25 May 23:47:10 23:51:27 77° 286° (WNW) 23:55:46 435.000
CUSAT 1 25 May 23:49:02 23:56:55 65° 265° (W) 00:03:37 437.405
POPSAT HIP 1 25 May 23:49:45 23:53:06 23° 94° (E) 23:56:25 437.405
QB50P1 25 May 23:50:21 23:53:44 23° 94° (E) 23:57:07 145.935-145.965
QB50P2 25 May 23:51:47 23:55:18 25° 95° (E) 23:58:48 145.880/145.840
ESTCUBE 1 25 May 23:52:30 23:56:57 62° 259° (W) 00:01:28 437.505/2401.250
POLYITAN 1 25 May 23:54:12 23:57:45 26° 95° (E) 00:01:16 437.675
TISAT 1 25 May 23:57:23 23:59:36 14° 61° (ENE) 00:01:48 437.305
ISS 25 May 23:59:44 00:02:57 54° 337° (NNW) 00:06:10 145.825
PHONESAT 2.4 26 May 00:03:09 00:05:35 21° 163° (SSE) 00:08:02 2401.200-2431.200
NANOSAT C BR1 26 May 00:09:40 00:13:33 35° 98° (E) 00:17:23 145.865
ANTELSAT 26 May 00:20:32 00:24:23 33° 291° (WNW) 00:28:16 437.575/2403.000
CUBEBUG 1 26 May 00:22:24 00:26:37 42° 262° (W) 00:30:52 437.445
VELOX 1 26 May 00:23:46 00:28:01 42° 262° (W) 00:32:16 145.980
DX 1 26 May 00:25:37 00:29:49 45° 261° (W) 00:34:03 434.975-435.025
